Regional Weather Roundup
Issued by NWS

Home | Current Version | Previous Version | Text Only | Print | Product List | Glossary Off
Versions: 1 2 3 4 5 6 7 8 9 10 11 12 13 14 15 16 17 18 19 20 21 22 23 24 25 26 27 28 29 30 31 32 33 34 35 36 37 38 39 40 41 42 43 44 45 46 47 48 49 50

000
ASUS43 KFSD 190902
RWRSD

WEATHER ROUNDUP FOR SOUTH DAKOTA
NATIONAL WEATHER SERVICE SIOUX FALLS SD
400 AM CDT SUN APR 19 2015

NOTE: "FAIR" INDICATES FEW OR NO CLOUDS BELOW 12,000 FEET WITH NO
SIGNIFICANT WEATHER AND/OR OBSTRUCTIONS TO VISIBILITY.


SDZ001>005-009-010-012>017-191000-
NORTHWEST AND NORTH CENTRAL SOUTH DAKOTA

CITY           SKY/WX    TMP DP  RH WIND       PRES   REMARKS
BUFFALO          N/A     36  25  64 NW21      29.97F
FAITH            N/A     40  33  76 N16       29.96R
MOBRIDGE       CLOUDY    46  41  82 N15G26    29.86R
$$

SDZ012>016-024>037-041>051-057-063-072>074-191000-
SOUTHWEST AND SOUTH CENTRAL SOUTH DAKOTA

CITY           SKY/WX    TMP DP  RH WIND       PRES   REMARKS
RAPID CTY ARPT MOCLDY    41  30  65 NW28G33   30.00R
PIERRE         CLOUDY    47  44  90 N25G32    29.86R
CUSTER         PTCLDY    34  23  64 NW9G18    30.01S WCI  27
ELLSWORTH AFB  PTCLDY    41  30  66 NW22G30   30.00R
PHILIP         CLOUDY    46  43  89 NW10      29.95R
PINE RIDGE     CLOUDY    43  35  73 NW15G26   30.00R
WINNER         LGT RAIN  48  44  86 NW16G24   29.87R
$$

SDZ004>011-016>023-039-040-191000-
NORTHEAST SOUTH DAKOTA

CITY           SKY/WX    TMP DP  RH WIND       PRES   REMARKS
ABERDEEN       RAIN      49  47  93 N12       29.77F
WATERTOWN      CLOUDY    53  52  96 VRB6      29.69F FOG
BROOKINGS      CLOUDY    57  55  94 SW10      29.72F
SISSETON         N/A     49  49 100 N8        29.71S
$$

SDZ017-020-022-023-036>040-048>070-191000-
SOUTHEAST SOUTH DAKOTA

CITY           SKY/WX    TMP DP  RH WIND       PRES   REMARKS
SIOUX FALLS    CLOUDY    56  55  97 SW5       29.72F
HURON          CLOUDY    49  47  93 NW24G30   29.76S
MITCHELL       CLOUDY    52  51  97 W16G24    29.76F FOG
YANKTON        CLOUDY    55  54  94 W14       29.74S
$$

ABBREVIATIONS USED IN REMARKS
   TC - TEMPERATURE IN CELSIUS
  WCI - WIND CHILL INDEX
   HX - HEAT INDEX
  VSB - VISIBILITY




USA.gov is the U.S. government's official web portal to all federal, state and local government web resources and services.